Location: Bannatyne
(13.0833°N, 59.5333°W)
Time: 11:59:34
(UTC+00:00)

Envisat - Visible Passes

Search period start: 21 January 2021 00:00
Search period end: 31 January 2021 00:00
Orbit: 764 x 766 km, 98.1° (Epoch: 20 January)

Date Brightness Start Highest point End Pass type
(mag) Time Alt. Az. Time Alt. Az. Time Alt. Az.
21 Jan 4.7 08:54:55 10° NE 08:59:28 34° E 09:04:01 10° SSE visible
22 Jan 6.2 08:20:47 10° ENE 08:22:38 12° E 08:24:29 10° ESE visible
22 Jan 3.4 09:56:48 10° N 10:01:32 41° WNW 10:06:16 10° SW visible
23 Jan 3.3 09:19:47 10° NNE 09:24:50 71° ESE 09:29:53 10° S visible
24 Jan 5.3 08:43:56 10° NE 08:48:03 25° E 08:52:10 10° SSE visible
25 Jan 3.1 09:45:13 10° N 09:50:11 56° WNW 09:55:07 10° SSW visible
25 Jan 6.5 22:26:26 10° WSW 22:28:25 12° W 22:30:23 10° WNW visible
26 Jan 3.9 09:08:31 10° NNE 09:13:27 51° ESE 09:18:22 10° S visible
27 Jan 5.7 08:33:11 10° NE 08:36:39 19° E 08:40:06 10° SE visible
28 Jan 2.9 09:33:44 10° N 09:38:48 77° WNW 09:43:51 10° SSW visible
28 Jan 6.1 22:13:46 10° SW 22:16:59 17° W 22:20:13 10° WNW visible
29 Jan 4.5 08:57:22 10° NNE 09:02:03 37° E 09:06:43 10° SSE visible
30 Jan 6.1 08:22:48 10° ENE 08:25:14 13° E 08:27:39 10° SE visible
30 Jan 3.5 09:59:28 10° N 10:04:06 37° WNW 10:08:44 10° SW visible
